Rutland, VT

12:46 PM EDT on April 28, 2017 (GMT -0400)
Rutland State

Weather History for KRUT - June, 2014

Change the Weather History Date:

Saturday, June 7, 2014

  Actual Average Record
Temperature  
Mean Temperature 62 °F -  
Max Temperature 77 °F - 91 °F (1999)
Min Temperature 46 °F - 33 °F (1958)
Degree Days  
Heating Degree Days 3    
Month to date heating degree days 17  
Since 1 June heating degree days 17  
Since 1 July heating degree days 7914  
Cooling Degree Days 0    
Month to date cooling degree days 5  
Year to date cooling degree days 12  
Since 1 June cooling degree days 5  
Growing Degree Days 12 (Base 50)    
Moisture  
Dew Point 52 °F    
Average Humidity 68    
Maximum Humidity 96    
Minimum Humidity 40    
Precipitation  
Precipitation 0.00 in - 0.69 in (1990)
Month to date precipitation 0.54  
Year to date precipitation 11.08  
Sea Level Pressure  
Sea Level Pressure 29.97 in    
Wind  
Wind Speed 5 mph (NNE)    
Max Wind Speed 14 mph    
Max Gust Speed 20 mph    
Visibility 10 miles    
Events      
T = Trace of Precipitation, MM = Missing Value Source: NWS Daily Summary

Daily Weather History Graph

Daily Weather History Graph

Search for Another Location

Airport or City:

Trip Planner

Search our weather history database for the weather conditions in past years. The results will help you decide how hot, cold, wet, or windy it might be!

Date:

Astronomy

Jun. 07, 2014 Rise Set
Actual Time 5:11 AM EDT 8:30 PM EDT
Civil Twilight 4:35 AM EDT 9:05 PM EDT
Nautical Twilight 3:49 AM EDT 9:51 PM EDT
Astronomical Twilight 2:53 AM EDT 10:49 PM EDT
Moon 2:35 PM EDT (6/7) 1:41 AM EDT (6/7)
Length of Visible Light 16h 30m
Length of Day
15h 19m
Waxing Gibbous, 67% of the Moon is Illuminated
Jun 7
Waxing Gibbous
Jun 13
Full
Jun 19
Last Quarter
Jun 27
New
Jul 5
First Quarter

Hourly Weather History & Observations

Time (EDT) Temp. Dew Point Humidity Pressure Visibility Wind Dir Wind Speed Gust Speed Precip Events Conditions
12:15 AM 53.6 °F 51.8 °F 94% 29.95 in 10.0 mi South 3.5 mph - N/A   Scattered Clouds
12:35 AM 51.8 °F 51.8 °F 100% 29.96 in 10.0 mi Calm Calm - N/A   Mostly Cloudy
12:55 AM 51.8 °F 50.0 °F 94% 29.96 in 10.0 mi Calm Calm - N/A   Partly Cloudy
1:15 AM 51.8 °F 50.0 °F 94% 29.96 in 10.0 mi SE 5.8 mph - N/A   Clear
1:35 AM 51.8 °F 48.2 °F 88% 29.96 in 10.0 mi Calm Calm - N/A   Scattered Clouds
1:55 AM 51.8 °F 50.0 °F 94% 29.97 in 10.0 mi Calm Calm - N/A   Overcast
2:15 AM 51.8 °F 50.0 °F 94% 29.97 in 10.0 mi SE 4.6 mph - N/A   Overcast
2:35 AM 51.8 °F 50.0 °F 94% 29.96 in 10.0 mi SSE 3.5 mph - N/A   Overcast
2:55 AM 51.8 °F 50.0 °F 94% 29.96 in 3.0 mi Calm Calm - N/A   Mostly Cloudy
3:15 AM 50.0 °F 48.2 °F 94% 29.97 in 0.8 mi Calm Calm - N/A   Overcast
3:35 AM 48.2 °F 48.2 °F 100% 29.96 in 10.0 mi SE 5.8 mph - N/A   Partly Cloudy
3:55 AM 50.0 °F 48.2 °F 94% 29.97 in 10.0 mi SE 3.5 mph - N/A   Clear
4:15 AM 48.2 °F 48.2 °F 100% 29.97 in 10.0 mi SSE 3.5 mph - N/A   Clear
4:35 AM 48.2 °F 48.2 °F 100% 29.97 in 10.0 mi Calm Calm - N/A   Clear
4:55 AM 48.2 °F 46.4 °F 93% 29.97 in 0.5 mi SE 5.8 mph - N/A   Overcast
5:15 AM 48.2 °F 46.4 °F 93% 29.97 in 10.0 mi SSE 4.6 mph - N/A   Scattered Clouds
5:35 AM 48.2 °F 46.4 °F 93% 29.98 in 10.0 mi Calm Calm - N/A   Clear
5:55 AM 48.2 °F 46.4 °F 93% 29.98 in 0.8 mi Calm Calm - N/A   Mostly Cloudy
6:15 AM 48.2 °F 46.4 °F 93% 29.99 in 10.0 mi SSE 3.5 mph - N/A   Partly Cloudy
6:35 AM 48.2 °F 48.2 °F 100% 29.98 in 10.0 mi SE 3.5 mph - N/A   Clear
6:55 AM 51.8 °F 50.0 °F 94% 29.98 in 10.0 mi Calm Calm - N/A   Clear
7:15 AM 51.8 °F 50.0 °F 94% 29.99 in 10.0 mi Calm Calm - N/A   Clear
7:35 AM 55.4 °F 51.8 °F 88% 30.00 in 10.0 mi Calm Calm - N/A   Clear
8:15 AM 57.2 °F 53.6 °F 88% 30.01 in 10.0 mi Calm Calm - N/A   Clear
9:15 AM 62.6 °F 53.6 °F 72% 30.01 in 10.0 mi NE 3.5 mph - N/A   Clear
9:35 AM 64.4 °F 53.6 °F 68% 30.01 in 10.0 mi Calm Calm - N/A   Clear
9:55 AM 64.4 °F 53.6 °F 68% 30.00 in 10.0 mi WNW 3.5 mph - N/A   Clear
10:15 AM 66.2 °F 53.6 °F 64% 30.00 in 10.0 mi Calm Calm - N/A   Clear
10:35 AM 66.2 °F 55.4 °F 68% 30.00 in 10.0 mi NW 8.1 mph - N/A   Clear
10:55 AM 68.0 °F 53.6 °F 60% 30.00 in 10.0 mi NNW 6.9 mph - N/A   Clear
11:15 AM 69.8 °F 55.4 °F 60% 30.00 in 10.0 mi North 6.9 mph - N/A   Clear
11:35 AM - - N/A% 29.99 in 10.0 mi NNW 9.2 mph - N/A   Clear
11:55 AM 71.6 °F 55.4 °F 57% 29.99 in 10.0 mi NNW 8.1 mph - N/A   Partly Cloudy
12:15 PM - - N/A% 29.98 in 10.0 mi NW 12.7 mph - N/A   Partly Cloudy
12:35 PM - - N/A% 29.98 in 10.0 mi North 12.7 mph 17.3 mph N/A   Clear
12:55 PM 73.4 °F 51.8 °F 47% 29.98 in 10.0 mi NW 10.4 mph - N/A   Scattered Clouds
1:15 PM 73.4 °F 53.6 °F 50% 29.99 in 10.0 mi NNW 8.1 mph - N/A   Partly Cloudy
1:35 PM 73.4 °F 51.8 °F 47% 29.99 in 10.0 mi North 6.9 mph - N/A   Clear
1:55 PM 75.2 °F 51.8 °F 44% 29.98 in 10.0 mi North 9.2 mph - N/A   Clear
2:15 PM 75.2 °F 48.2 °F 38% 29.98 in 10.0 mi WNW 8.1 mph - N/A   Clear
2:35 PM 75.2 °F 50.0 °F 41% 29.97 in 10.0 mi WNW 9.2 mph - N/A   Clear
2:55 PM - - N/A% 29.97 in 10.0 mi North 10.4 mph 16.1 mph N/A   Clear
3:15 PM - - N/A% 29.96 in 10.0 mi North 10.4 mph - N/A   Clear
3:35 PM 75.2 °F 50.0 °F 41% 29.96 in 10.0 mi NNE 10.4 mph - N/A   Clear
3:55 PM 77.0 °F 51.8 °F 41% 29.95 in 10.0 mi North 13.8 mph 19.6 mph N/A   Clear
4:15 PM 77.0 °F 53.6 °F 44% 29.94 in 10.0 mi North 12.7 mph - N/A   Clear
4:35 PM 77.0 °F 51.8 °F 41% 29.94 in 10.0 mi NW 10.4 mph - N/A   Clear
4:55 PM 77.0 °F 51.8 °F 41% 29.93 in 10.0 mi NNW 8.1 mph - N/A   Clear
5:15 PM 77.0 °F 51.8 °F 41% 29.92 in 10.0 mi North 10.4 mph - N/A   Clear
5:35 PM 77.0 °F 51.8 °F 41% 29.92 in 10.0 mi NNW 4.6 mph - N/A   Clear
5:55 PM 77.0 °F 51.8 °F 41% 29.92 in 10.0 mi NW 6.9 mph - N/A   Clear
6:15 PM 77.0 °F 53.6 °F 44% 29.91 in 10.0 mi NNW 6.9 mph - N/A   Clear
6:35 PM 77.0 °F 51.8 °F 41% 29.91 in 10.0 mi NW 5.8 mph - N/A   Clear
6:55 PM 75.2 °F 53.6 °F 47% 29.92 in 10.0 mi WNW 6.9 mph - N/A   Clear
7:15 PM 75.2 °F 51.8 °F 44% 29.92 in 10.0 mi NW 5.8 mph - N/A   Clear
7:35 PM 75.2 °F 53.6 °F 47% 29.92 in 10.0 mi Calm Calm - N/A   Clear
7:55 PM 73.4 °F 53.6 °F 50% 29.92 in 10.0 mi Calm Calm - N/A   Clear
8:15 PM 73.4 °F 53.6 °F 50% 29.92 in 10.0 mi Calm Calm - N/A   Clear
8:35 PM 69.8 °F 55.4 °F 60% 29.93 in 10.0 mi Calm Calm - N/A   Clear
8:55 PM 66.2 °F 55.4 °F 68% 29.93 in 10.0 mi SE 4.6 mph - N/A   Clear
9:15 PM 64.4 °F 55.4 °F 73% 29.95 in 10.0 mi SSE 5.8 mph - N/A   Clear
9:35 PM 62.6 °F 55.4 °F 77% 29.96 in 10.0 mi SE 8.1 mph - N/A   Clear
9:55 PM 62.6 °F 55.4 °F 77% 29.97 in 10.0 mi SE 4.6 mph - N/A   Scattered Clouds
10:15 PM 62.6 °F 55.4 °F 77% 29.98 in 10.0 mi ESE 6.9 mph - N/A   Partly Cloudy
10:35 PM 62.6 °F 55.4 °F 77% 29.98 in 10.0 mi ESE 5.8 mph - N/A   Clear
10:55 PM 60.8 °F 55.4 °F 82% 29.98 in 10.0 mi SE 8.1 mph - N/A   Mostly Cloudy
11:15 PM 60.8 °F 55.4 °F 82% 29.98 in 10.0 mi SE 8.1 mph - N/A   Scattered Clouds
11:35 PM 60.8 °F 53.6 °F 77% 29.98 in 10.0 mi SE 10.4 mph - N/A   Partly Cloudy
11:55 PM 60.8 °F 53.6 °F 77% 29.98 in 10.0 mi ESE 10.4 mph - N/A   Scattered Clouds